[Iaude] MPEC M20: 2022 MF [a=2.22,e=0.60,i=5.5,H=24.9]

mpec at marsden.cfa.harvard.edu mpec at marsden.cfa.harvard.edu
Mon Jun 20 12:55:18 EDT 2022


M.P.E.C. 2022-M20                                 Issued 2022 June 20, 16:53 UT

     The Minor Planet Electronic Circulars contain information on unusual
         minor planets and routine data on comets.  They are published
    on behalf of Division F of the International Astronomical Union by the
          Minor Planet Center, Smithsonian Astrophysical Observatory,
                          Cambridge, MA 02138, U.S.A.

             Prepared using the Tamkin Foundation Computer Network

                              MPC at CFA.HARVARD.EDU
            URL https://www.minorplanetcenter.net/    ISSN 1523-6714

                                    2022 MF                                     


Observations:
     K22M00F  C2022 06 04.36489616 00 38.842-27 09 09.14         22.17GVEM020F52
     K22M00F  C2022 06 04.37509316 00 37.801-27 08 58.49         22.88GVEM020F52
     K22M00F  C2022 06 04.38526716 00 36.771-27 08 47.19         22.63GVEM020F52
     K22M00F  C2022 06 04.48018716 00 27.039-27 07 00.62         22.51GVEM020F52
     K22M00F* C2022 06 19.32188515 27 06.795-16 52 55.43         21.28wUEM020F52
     K22M00F  C2022 06 19.34510915 27 00.685-16 50 56.21         21.04wUEM020F52
     K22M00F  C2022 06 19.35672915 26 57.650-16 49 56.01         20.96wUEM020F52
     K22M00F KC2022 06 20.19529615 23 40.980-15 33 43.20         21.01GVEM020I52
     K22M00F KC2022 06 20.19693215 23 40.470-15 33 33.70         21.48GVEM020I52
     K22M00F KC2022 06 20.19856815 23 40.050-15 33 24.70         20.49GVEM020I52
     K22M00F ^C2022 06 20.41583615 22 42.299-15 11 45.93         21.06GVEM020568
     K22M00F ^C2022 06 20.41681715 22 42.016-15 11 39.98         21.05GVEM020568
     K22M00F ^C2022 06 20.41779315 22 41.745-15 11 34.15         20.98GVEM020568
     K22M00F ^C2022 06 20.41880815 22 41.450-15 11 27.99         21.03GVEM020568

Observer details:
568 Mauna Kea.  Observers R. Wainscoat, H. Januszewski, T. Burdullis.
    Measurers R. Weryk, R. Wainscoat.  3.6-m Canada-France-Hawaii Telescope +
    CCD.
F52 Pan-STARRS 2, Haleakala.  Observers J. Bulger, K. Chambers, T. Dukes, T.
    Lowe, A. Schultz, I. Smith.  Measurers S. Chastel, M. Huber, Y.
    Ramanjooloo, R. Wainscoat, R. Weryk, K. Chambers, T. de Boer, J. Fairlamb,
    H. Gao, C.-C. Lin, E. Magnier.  1.8-m Ritchey-Chretien + CCD.
I52 Steward Observatory, Mt. Lemmon Station.  Observer R. A. Kowalski.
    Measurers E. J. Christensen, D. Fay, J. B. Fazekas, D. C. Fuls, A. R.
    Gibbs, A. D. Grauer, H. Groeller, J. K. Hogan, R. A. Kowalski, S. M.
    Larson, G. J. Leonard, D. Rankin, R. L. Seaman, A. Serrano, F. C. Shelly,
    K. W. Wierzchos.  1.0-m prime focus + CCD.

Orbital elements:
2022 MF                                                  Earth MOID = 0.0227 AU
Epoch 2022 Aug. 9.0 TT = JDT 2459800.5                  Veres                   
M   1.01191              (2000.0)            P               Q                  
n   0.29872285     Peri.   62.45732     +0.82028849     +0.56404433             
a   2.2162756      Node   263.06113     -0.55264573     +0.73896272             
e   0.5990960      Incl.    5.47816     -0.14734142     +0.36849437             
P   3.30           H   24.92          G   0.15           U   8                  
Residuals in seconds of arc
220604 F52  0.2-  0.3+    220619 F52  0.3-  0.1-    220620 568  0.0   0.0
220604 F52  0.1-  0.1-    220619 F52  0.1-  0.1-    220620 568  0.1-  0.0
220604 F52  0.1+  0.2+    220620 I52  0.3+  0.2+    220620 568  0.1+  0.0
220604 F52  0.2+  0.4-    220620 I52  0.4-  0.2+    220620 568  0.0   0.0
220619 F52  0.1-  0.1+    220620 I52  0.2+  0.3-

Ephemeris:
2022 MF                  a,e,i = 2.22, 0.60, 5                   q = 0.8885
Date    TT    R. A. (2000) Decl.     Delta      r    Elong.  Phase     V
2022 05 21    16 14 37.7 -29 35 46   0.3319  1.3392   168.9     8.3    23.7
...
2022 06 05    15 59 44.0 -26 56 41   0.2016  1.2122   167.6    10.4    22.5
...
2022 06 13    15 45 19.9 -23 08 33   0.1413  1.1472   157.4    19.9    22.0
...
2022 06 19    15 28 17.8 -17 19 04   0.09976 1.1007   146.6    30.5    21.4
2022 06 20    15 24 28.5 -15 51 14   0.09317 1.0932   144.3    32.8    21.3
2022 06 21    15 20 13.5 -14 10 15   0.08671 1.0857   141.9    35.3    21.2
...
2022 06 27    14 38 24.1 +04 13 17   0.05209 1.0428   119.0    58.5    20.7
...
2022 07 05    10 34 27.3 +58 39 43   0.04299 0.9912    52.6   125.4    23.4
...
2022 07 20    05 23 56.9 +47 12 17   0.1336  0.9187    40.5   134.1    26.5

M. P. C. Staff               (C) Copyright 2022 MPC           M.P.E.C. 2022-M20




More information about the Iaude mailing list